User: anonymous   Login
Location: Holyhead Bay
(53.3667°N, 4.6667°W)
Time: 02:21:56
(UTC+00:00)
Language:

Cosmos 2360 Rocket - Orbit

View from above orbital plane
View from above orbital plane
View from above satellite
View from above satellite

Ground track
Ground track

The orbit data is extracted from the following two-line orbital elements,

1 25407U 98045B   21059.45058849  .00000203  00000-0  12728-3 0  9992
2 25407  71.0100  79.5877 0009485 295.1709  64.8430 14.15833566167316
Epoch (UTC): 28 February 2021 10:48:50
Eccentricity: 0.0009485
inclination: 71.0100°
perigee height: 832 km
apogee height: 846 km
right ascension of ascending node: 79.5877°
argument of perigee: 295.1709°
revolutions per day: 14.15833566
mean anomaly at epoch: 64.8430°
orbit number at epoch: 16731

The dashed part of the orbit path shows where the satellite is in the earth's shadow,  

DLR